Wind_Speed
11 11 12 16 18 22 25 28 29 35 38 39 41 42 43 43 41 39 36 34 33 33 33 33 34 35 33 33 34 33 32 31 31 31 29 27 24 22 21 20 19 18 18 19
5 6 9 10 12 14 17 20 22 29 34 36 37 38 38 37 35 32 30 30 31 32 32 34 35 35 36 36 36 34 33 31 30 29 26 23 19 17 16 15 13 12 13 14
2 7 6 7 7 7 9 12 16 20 24 24 27 27 29 30 29 28 27 28 29 30 32 34 36 38 38 38 37 35 33 32 30 27 23 19 15 13 12 12 12 13 13 14
5 6 6 7 8 9 9 13 14 15 17 16 21 21 20 26 25 26 27 28 30 32 34 37 38 40 40 39 36 34 34 33 30 26 23 19 16 15 15 16 17 17 17 17
7 8 8 8 10 10 11 13 13 14 15 15 17 18 15 22 23 24 27 30 32 35 38 39 39 39 38 37 36 35 35 34 30 27 24 22 20 21 21 22 22 22 21 19
6 6 7 8 9 9 11 12 12 12 13 13 15 14 13 18 19 19 21 25 28 32 35 36 36 35 35 34 34 35 35 33 30 28 27 26 25 26 27 27 27 26 23 21
6 7 7 8 9 11 13 13 11 10 10 12 16 13 16 17 18 18 20 22 24 26 28 31 32 33 32 32 34 34 34 32 31 30 30 30 29 29 30 30 29 27 26 24
6 8 10 9 9 10 11 11 10 10 11 12 15 15 18 19 19 19 20 22 24 26 27 30 32 32 33 33 34 35 35 35 34 34 33 33 33 32 31 31 30 29 28 26
6 8 11 9 8 7 7 8 10 12 12 13 12 16 21 21 22 22 22 24 26 28 30 32 33 35 36 36 37 38 39 39 39 39 38 37 36 35 34 33 33 32 31 29
6 6 9 8 6 6 9 10 11 12 14 14 15 17 21 21 23 24 26 29 31 34 36 37 38 39 40 42 43 44 45 46 46 46 45 43 42 40 39 38 37 36 35 32
5 5 7 9 9 12 13 14 15 16 18 19 19 22 23 24 26 28 31 33 36 39 41 42 43 44 46 47 48 49 50 51 51 51 51 50 48 46 44 43 41 40 38 35
6 7 9 11 13 15 17 18 20 21 23 25 26 30 27 28 30 32 34 36 38 40 43 45 47 49 50 51 52 53 54 55 56 56 56 56 55 52 50 48 45 43 41 38
9 11 13 15 21 22 22 23 24 25 26 28 29 34 33 35 36 37 38 40 41 43 44 47 49 50 52 53 54 55 56 58 60 61 62 61 61 59 56 54 52 48 44 40
13 15 17 18 20 24 26 27 27 27 28 30 32 38 39 40 41 42 42 43 43 44 46 48 50 52 54 56 58 60 61 62 64 66 67 67 67 67 64 62 59 54 48 43
16 18 20 21 23 26 27 28 28 30 31 33 36 39 41 43 44 45 45 45 46 48 51 52 54 56 59 62 65 67 69 70 72 74 76 76 76 75 71 66 61 58 53 48
18 19 21 22 24 27 29 29 31 32 33 36 38 41 43 46 48 49 51 53 56 59 62 65 66 67 69 70 72 74 76 77 76 78 79 78 75 74 73 69 65 62 58 54
19 21 22 24 26 29 30 29 32 33 34 36 40 45 48 51 54 57 59 62 65 69 72 76 78 80 81 82 82 84 85 85 86 86 87 87 86 84 83 81 78 74 68 62
21 22 23 24 26 27 28 30 32 35 37 41 47 50 54 58 61 64 68 72 75 77 79 80 81 81 80 78 77 77 78 79 82 84 87 89 90 89 86 84 82 78 73 67
23 23 23 24 26 30 30 33 37 41 44 48 52 56 60 64 67 71 75 78 79 78 75 70 65 60 55 52 50 49 49 50 52 55 59 62 66 69 69 69 70 69 67 65
24 23 25 26 27 30 35 37 41 46 51 55 58 62 67 71 74 75 77 76 70 60 52 45 40 38 37 38 39 40 40 40 40 41 42 42 42 43 44 47 51 54 57 58
24 25 26 27 30 33 36 40 44 49 54 58 62 67 71 75 77 76 68 55 46 39 35 35 36 39 41 42 43 43 44 44 44 44 43 41 38 36 34 34 36 41 46 50
26 27 28 30 33 38 42 45 50 54 59 63 67 71 75 76 71 59 46 38 35 35 37 40 42 43 44 45 46 46 47 47 48 48 46 43 39 34 30 28 29 31 35 41
27 29 32 34 36 41 46 50 54 58 62 66 71 76 77 71 57 42 35 34 36 40 43 45 46 46 47 48 49 49 49 50 50 50 48 45 42 37 32 27 26 27 28 31
30 32 35 37 40 44 48 52 56 60 65 71 76 78 73 59 44 36 35 37 40 43 46 49 49 49 50 51 52 53 52 51 51 51 48 45 42 39 35 30 26 24 24 25
34 36 39 42 45 48 52 56 60 64 69 74 78 75 63 48 38 37 38 41 44 47 50 51 52 52 52 52 53 53 52 51 51 48 46 45 43 40 37 32 28 25 24 24
36 38 41 44 48 51 55 59 63 67 71 76 77 69 53 42 38 39 42 46 49 51 53 54 54 54 53 52 51 49 49 48 47 44 41 40 41 40 38 34 30 27 26 26
Wind_Direction
280 275 269 262 255 250 249 246 246 248 251 252 255 258 262 265 268 269 270 268 264 264 268 273 275 281 289 295 297 296 294 291 291 292 293 291 289 287 285 284 285 289 294 298
307 290 275 273 270 264 260 256 255 257 255 257 262 266 270 272 272 270 265 262 262 265 269 273 278 284 289 292 294 293 290 290 291 291 289 287 284 281 279 279 285 294 302 307
228 266 280 286 291 290 281 267 262 265 270 273 275 277 280 276 272 270 265 263 263 266 269 273 279 282 286 290 290 290 289 290 292 291 289 286 281 275 273 276 287 295 301 306
277 272 272 281 287 288 291 281 279 280 280 279 279 280 277 283 279 272 268 266 266 267 270 273 275 279 283 286 287 288 289 291 291 291 291 289 281 274 273 277 284 292 298 306
288 283 280 278 276 283 284 290 289 287 286 286 286 289 284 278 279 271 264 261 261 263 265 267 271 273 277 279 282 286 288 289 290 290 290 288 281 276 276 278 284 291 296 303
318 304 291 281 280 282 292 296 296 298 300 299 289 292 290 283 285 276 267 263 261 261 262 263 264 266 271 276 281 285 287 288 288 289 289 286 282 279 278 279 282 285 290 298
341 328 315 304 294 292 297 302 307 308 300 293 300 301 290 294 291 284 276 272 270 269 268 269 268 269 273 277 280 283 284 285 286 286 286 284 282 281 280 280 280 281 285 291
319 310 313 316 308 299 297 302 301 294 289 288 301 300 295 298 297 292 285 281 279 279 279 279 277 278 280 280 280 282 283 283 282 281 281 280 281 281 281 281 282 282 284 288
289 283 307 315 311 311 308 305 301 302 304 306 297 291 292 296 297 294 290 287 285 284 284 283 280 279 280 279 280 282 282 282 280 278 276 276 277 279 280 280 281 282 284 287
292 283 299 311 314 316 314 311 307 304 300 297 294 296 288 294 291 289 286 284 281 281 281 281 279 277 277 278 279 280 280 280 279 278 277 276 276 277 279 280 280 281 283 285
305 304 307 317 324 324 321 317 313 307 305 302 299 288 299 296 290 286 282 279 278 277 278 279 278 278 277 278 278 278 278 278 278 278 278 278 278 278 278 279 280 279 280 280
332 328 320 319 322 323 319 316 314 313 311 308 307 300 306 299 295 291 288 284 281 278 277 276 276 276 276 275 276 276 276 276 276 276 276 277 278 278 278 278 279 279 278 277
334 328 326 327 323 324 320 317 315 312 310 310 309 300 307 302 299 297 294 291 288 285 283 281 279 278 277 276 276 276 276 275 275 274 274 274 275 275 276 276 276 276 276 275
326 323 321 318 312 313 315 315 314 313 311 308 304 301 306 304 302 300 298 294 291 289 287 285 283 282 280 279 278 278 278 278 277 275 273 272 272 272 272 273 272 270 269 270
324 321 318 316 314 313 313 314 313 311 310 307 304 303 304 304 304 302 299 296 294 293 291 289 286 284 282 280 278 276 274 273 273 271 268 266 265 264 264 264 263 263 263 265
327 324 322 319 317 315 316 318 314 313 311 310 309 308 308 307 306 304 303 301 298 295 292 290 286 283 279 276 273 271 270 267 265 264 263 263 262 260 261 260 262 263 264 267
329 326 325 324 322 319 321 320 315 314 315 314 313 311 309 309 308 307 304 299 295 292 290 288 286 284 282 280 277 275 274 273 271 269 268 268 267 267 268 269 269 270 270 271
331 329 327 326 322 321 322 319 317 317 318 315 313 312 312 312 310 308 304 301 298 295 292 290 289 288 288 287 286 284 282 280 278 276 274 273 272 271 271 271 272 271 271 269
334 331 329 329 326 323 325 322 321 320 319 316 316 316 315 313 311 309 306 303 301 299 299 298 298 298 298 297 295 294 293 291 289 285 282 279 277 275 273 271 269 267 266 264
336 335 333 332 329 326 325 323 323 321 320 320 320 319 317 315 313 310 307 305 305 306 306 307 307 307 306 306 304 304 302 301 299 297 294 292 288 283 277 271 265 261 257 253
336 335 333 330 326 324 323 323 322 322 322 321 321 320 320 318 316 313 312 312 312 314 315 315 313 311 309 306 304 302 299 296 294 292 291 290 290 287 282 276 269 260 252 245
336 334 331 329 328 326 324 323 324 324 324 324 323 324 323 322 319 318 318 319 318 317 315 313 311 309 307 305 303 301 299 295 292 289 285 282 281 281 281 278 270 263 254 244
337 334 332 331 329 326 325 325 326 326 326 325 326 328 327 325 324 322 320 319 317 316 315 313 310 309 307 304 302 300 298 295 291 287 282 277 273 271 272 273 270 263 256 247
336 333 332 330 328 328 327 325 326 328 329 330 331 331 330 327 325 322 321 320 319 318 317 315 312 309 308 305 302 300 298 296 293 288 280 272 266 263 262 262 263 260 253 245
336 334 332 330 328 329 329 330 331 332 332 333 333 333 330 326 325 323 323 322 321 321 320 318 315 312 309 305 303 300 298 296 294 289 280 268 259 254 251 251 252 251 245 238
337 335 332 331 330 331 333 334 334 334 334 335 336 334 329 326 325 325 325 325 324 323 321 319 317 315 313 309 306 303 301 299 295 289 279 265 254 246 242 241 241 241 237 231
Height
5871 5873 5873 5873 5874 5875 5877 5879 5881 5881 5881 5883 5883 5883 5883 5883 5884 5885 5884 5883 5882 5881 5880 5879 5877 5875 5873 5870 5868 5865 5862 5859 5856 5854 5851 5848 5846 5844 5842 5840 5838 5837 5836 5834
5871 5871 5870 5870 5871 5872 5873 5875 5877 5876 5874 5876 5876 5876 5876 5876 5876 5877 5877 5877 5877 5876 5875 5873 5870 5868 5865 5863 5860 5857 5855 5852 5850 5848 5845 5842 5839 5837 5836 5835 5833 5832 5830 5828
5871 5870 5869 5869 5869 5870 5871 5871 5872 5871 5870 5871 5871 5871 5869 5869 5870 5871 5871 5872 5871 5870 5868 5866 5863 5860 5857 5855 5852 5850 5847 5845 5843 5840 5838 5835 5833 5832 5831 5830 5829 5827 5825 5823
5869 5868 5867 5868 5868 5867 5869 5867 5867 5866 5867 5867 5867 5866 5867 5863 5863 5864 5864 5864 5864 5862 5860 5857 5854 5851 5849 5847 5844 5842 5840 5838 5836 5833 5831 5829 5827 5826 5825 5824 5823 5821 5819 5817
5867 5866 5866 5866 5865 5864 5864 5863 5863 5862 5862 5862 5861 5861 5863 5858 5856 5856 5856 5855 5854 5853 5850 5847 5845 5843 5841 5839 5837 5835 5833 5831 5829 5827 5825 5823 5822 5821 5820 5818 5816 5814 5812 5810
5866 5865 5864 5864 5863 5863 5862 5862 5861 5860 5860 5860 5857 5858 5857 5853 5850 5849 5848 5846 5845 5843 5840 5837 5835 5834 5833 5831 5829 5827 5825 5823 5822 5820 5818 5817 5816 5815 5814 5812 5810 5808 5805 5803
5867 5865 5863 5863 5862 5862 5861 5860 5861 5861 5861 5859 5854 5853 5851 5848 5846 5844 5842 5840 5838 5837 5834 5831 5828 5826 5824 5823 5822 5820 5818 5816 5814 5813 5812 5810 5809 5807 5806 5805 5803 5801 5799 5796
5867 5867 5863 5861 5860 5859 5858 5858 5858 5858 5857 5856 5852 5849 5846 5843 5841 5839 5837 5835 5833 5831 5829 5827 5824 5821 5819 5816 5814 5812 5810 5808 5807 5806 5804 5803 5801 5798 5797 5795 5794 5793 5791 5788
5866 5865 5862 5859 5858 5857 5856 5855 5854 5853 5851 5850 5850 5846 5840 5838 5836 5835 5832 5830 5827 5825 5822 5820 5817 5814 5811 5808 5806 5803 5801 5799 5797 5796 5795 5793 5791 5789 5787 5786 5784 5783 5781 5779
5863 5862 5861 5859 5857 5856 5855 5853 5851 5850 5848 5847 5846 5843 5840 5835 5832 5829 5826 5823 5820 5817 5814 5811 5808 5805 5802 5799 5796 5793 5791 5788 5786 5784 5783 5782 5781 5779 5777 5775 5774 5772 5770 5769
5861 5861 5860 5858 5856 5854 5852 5850 5848 5846 5844 5841 5840 5840 5834 5830 5827 5823 5819 5815 5811 5808 5804 5800 5797 5794 5790 5787 5784 5781 5779 5776 5774 5771 5769 5768 5767 5766 5765 5763 5762 5760 5759 5757
5860 5859 5857 5856 5854 5851 5848 5845 5843 5841 5838 5834 5831 5831 5827 5822 5818 5814 5810 5806 5801 5797 5793 5789 5785 5781 5777 5773 5770 5767 5764 5761 5758 5756 5754 5752 5750 5750 5749 5749 5748 5747 5746 5745
5859 5858 5855 5853 5851 5847 5843 5840 5838 5835 5831 5828 5825 5822 5817 5812 5808 5804 5799 5794 5790 5785 5780 5775 5771 5766 5762 5758 5754 5750 5747 5743 5741 5738 5735 5733 5732 5731 5731 5732 5732 5732 5732 5732
5856 5854 5853 5851 5848 5843 5839 5835 5831 5828 5825 5822 5818 5810 5806 5801 5796 5792 5786 5781 5775 5770 5765 5759 5754 5749 5744 5740 5735 5731 5727 5723 5720 5717 5715 5713 5712 5711 5711 5712 5714 5715 5716 5717
5854 5852 5848 5845 5841 5837 5833 5830 5826 5823 5819 5815 5809 5803 5797 5790 5785 5779 5773 5767 5761 5755 5749 5742 5737 5731 5726 5720 5715 5710 5706 5702 5699 5696 5693 5691 5690 5690 5690 5691 5693 5696 5698 5701
5849 5847 5844 5840 5836 5832 5827 5824 5820 5816 5811 5806 5800 5794 5788 5780 5773 5767 5759 5752 5745 5738 5731 5724 5717 5711 5705 5699 5693 5687 5683 5679 5675 5673 5670 5666 5665 5665 5666 5668 5671 5674 5678 5682
5845 5842 5839 5836 5831 5826 5822 5819 5813 5808 5804 5799 5792 5786 5777 5769 5761 5753 5745 5736 5728 5720 5711 5701 5692 5684 5678 5672 5666 5661 5657 5653 5650 5647 5645 5642 5641 5641 5642 5644 5647 5651 5655 5661
5841 5838 5835 5831 5827 5823 5821 5813 5807 5802 5797 5790 5781 5773 5764 5755 5745 5736 5725 5713 5703 5693 5683 5673 5664 5655 5648 5642 5636 5632 5628 5624 5620 5618 5616 5614 5613 5614 5615 5618 5620 5625 5631 5638
5837 5834 5830 5827 5822 5815 5813 5806 5798 5791 5785 5777 5768 5759 5749 5739 5729 5718 5703 5689 5676 5665 5655 5645 5637 5630 5624 5618 5613 5608 5605 5600 5596 5592 5589 5587 5586 5586 5588 5590 5594 5598 5605 5613
5833 5829 5825 5821 5816 5812 5805 5798 5789 5782 5773 5763 5754 5744 5733 5721 5709 5699 5682 5666 5653 5642 5634 5627 5621 5615 5610 5605 5600 5595 5591 5586 5582 5578 5574 5571 5568 5567 5566 5567 5569 5573 5578 5586
5830 5826 5822 5817 5811 5805 5799 5791 5784 5775 5767 5755 5742 5730 5716 5702 5686 5672 5658 5646 5636 5628 5622 5617 5611 5605 5599 5593 5588 5583 5578 5574 5570 5566 5562 5560 5557 5555 5553 5553 5553 5554 5557 5563
5826 5822 5817 5811 5805 5798 5789 5780 5772 5763 5751 5739 5727 5713 5699 5683 5666 5651 5640 5632 5626 5620 5614 5608 5601 5595 5587 5580 5574 5568 5563 5558 5553 5550 5547 5546 5545 5544 5543 5542 5542 5541 5542 5546
5822 5817 5811 5806 5800 5790 5780 5770 5761 5751 5739 5726 5711 5696 5679 5663 5650 5639 5632 5625 5618 5611 5604 5596 5588 5581 5574 5566 5558 5552 5546 5540 5535 5531 5529 5529 5530 5531 5531 5532 5531 5532 5532 5534
5817 5811 5805 5798 5790 5782 5773 5762 5752 5740 5726 5711 5695 5678 5662 5648 5638 5630 5623 5616 5609 5601 5592 5583 5575 5566 5559 5550 5542 5534 5527 5520 5515 5511 5509 5509 5512 5515 5518 5521 5522 5523 5525 5527
5811 5804 5798 5790 5781 5773 5763 5751 5739 5726 5712 5696 5680 5663 5647 5636 5628 5621 5615 5607 5599 5590 5580 5570 5560 5551 5542 5533 5524 5516 5507 5500 5494 5490 5487 5489 5493 5498 5504 5509 5512 5515 5518 5521
5805 5798 5791 5783 5773 5763 5753 5740 5728 5715 5701 5685 5668 5652 5637 5627 5620 5613 5606 5597 5587 5577 5567 5556 5545 5535 5525 5515 5506 5497 5489 5481 5474 5470 5468 5469 5474 5481 5488 5496 5502 5506 5511 5515